Location: Dillon
(41.1766°N, 107.0923°W)
Time: 00:32:17
(UTC+00:00)

AO-92 - Visible Passes

Search period start: 29 June 2022 00:00
Search period end: 09 July 2022 00:00
Orbit: 472 x 481 km, 97.4° (Epoch: 28 June)

Date Brightness Start Highest point End Pass type
(mag) Time Alt. Az. Time Alt. Az. Time Alt. Az.
29 Jun ? 04:56:40 46° ESE 04:57:12 51° ENE 05:00:40 10° N visible
30 Jun ? 04:29:44 21° E 04:30:39 23° ENE 04:33:32 10° NNE visible
30 Jun ? 06:03:56 20° W 06:03:56 20° W 06:06:33 10° NW visible
01 Jul ? 04:02:52 10° E 04:04:12 12° ENE 04:05:31 10° NE visible
01 Jul ? 05:36:59 42° WSW 05:37:04 43° W 05:40:29 10° NNW visible
02 Jul ? 05:10:01 69° SE 05:10:21 79° ENE 05:13:55 10° N visible
03 Jul ? 04:43:02 31° E 04:43:43 33° ENE 04:46:58 10° N visible
03 Jul ? 06:17:15 14° W 06:17:15 14° W 06:19:01 10° WNW visible
04 Jul ? 04:16:04 15° E 04:17:11 17° ENE 04:19:29 10° NNE visible
04 Jul ? 05:50:16 29° W 05:50:16 29° W 05:53:23 10° NW visible
05 Jul ? 05:23:16 66° WSW 05:23:26 68° W 05:26:59 10° NNW visible
06 Jul ? 04:56:17 46° ESE 04:56:43 50° ENE 05:00:11 10° N visible
07 Jul ? 04:29:16 21° E 04:30:06 23° ENE 04:32:58 10° NNE visible
07 Jul ? 06:03:28 20° W 06:03:28 20° W 06:06:02 10° NW visible
08 Jul ? 04:02:19 10° E 04:03:34 12° ENE 04:04:49 10° NE visible
08 Jul ? 05:36:27 44° W 05:36:27 44° W 05:39:52 10° NNW visible
